TimeMDT,TemperatureF,Dew PointF,Humidity,Sea Level PressureIn,VisibilityMPH,Wind Direction,Wind SpeedMPH,Gust SpeedMPH,PrecipitationIn,Events,Conditions,WindDirDegrees,DateUTC
12:53 AM,25.0,21.0,85,30.35,10.0,NW,9.2,-,N/A,,Overcast,310,2012-10-25 06:53:00
1:53 AM,24.1,19.0,81,30.35,10.0,WNW,9.2,-,N/A,,Overcast,300,2012-10-25 07:53:00
2:53 AM,24.1,19.0,81,30.37,10.0,WNW,9.2,-,N/A,,Overcast,300,2012-10-25 08:53:00
3:53 AM,24.1,19.0,81,30.37,7.0,NW,9.2,-,N/A,,Overcast,310,2012-10-25 09:53:00
4:53 AM,23.0,19.0,85,30.38,10.0,NW,8.1,-,N/A,,Overcast,310,2012-10-25 10:53:00
5:53 AM,23.0,18.0,81,30.39,6.0,WNW,5.8,-,0.00,Snow,Light Snow,290,2012-10-25 11:53:00
6:42 AM,23.0,17.6,80,30.23,4.0,WNW,5.8,-,0.00,Snow,Light Snow,300,2012-10-25 12:42:00
6:53 AM,21.9,17.1,82,30.42,4.0,NW,6.9,-,0.00,Snow,Light Snow,320,2012-10-25 12:53:00
7:19 AM,23.0,17.6,80,30.24,9.0,West,5.8,-,0.00,,Overcast,280,2012-10-25 13:19:00
7:53 AM,23.0,16.0,74,30.43,9.0,NW,6.9,-,0.00,Snow,Light Snow,320,2012-10-25 13:53:00
8:53 AM,23.0,17.1,78,30.46,5.0,WNW,6.9,-,0.00,Snow,Light Snow,300,2012-10-25 14:53:00
9:51 AM,23.0,17.6,80,30.29,4.0,West,6.9,-,0.00,Snow,Light Snow,280,2012-10-25 15:51:00
9:53 AM,23.0,18.0,81,30.48,4.0,West,9.2,-,0.00,Snow,Light Snow,270,2012-10-25 15:53:00
10:09 AM,23.0,17.6,80,30.29,2.0,WNW,9.2,-,0.00,Snow,Light Snow,300,2012-10-25 16:09:00
10:28 AM,23.0,17.6,80,30.30,4.0,West,8.1,-,N/A,Snow,Light Snow,280,2012-10-25 16:28:00
10:40 AM,23.0,17.6,80,30.30,8.0,WNW,9.2,-,0.00,,Overcast,290,2012-10-25 16:40:00
10:53 AM,24.1,16.0,71,30.49,5.0,West,6.9,-,0.00,,Haze,270,2012-10-25 16:53:00
11:53 AM,26.1,18.0,71,30.50,8.0,West,6.9,-,0.00,Snow,Light Snow,280,2012-10-25 17:53:00
12:46 PM,26.6,15.8,64,30.32,10.0,NNW,6.9,-,0.00,,Overcast,330,2012-10-25 18:46:00
12:53 PM,27.0,15.1,61,30.50,10.0,NW,6.9,-,0.00,,Overcast,310,2012-10-25 18:53:00
1:49 PM,26.6,17.6,69,30.32,6.0,West,5.8,-,0.00,Snow,Light Snow,280,2012-10-25 19:49:00
1:53 PM,28.0,17.1,63,30.50,5.0,WNW,5.8,-,0.00,Snow,Light Snow,300,2012-10-25 19:53:00
2:45 PM,26.6,15.8,64,30.32,10.0,NW,9.2,-,0.00,,Mostly Cloudy,310,2012-10-25 20:45:00
2:53 PM,27.0,15.1,61,30.51,10.0,NW,8.1,-,0.00,,Mostly Cloudy,320,2012-10-25 20:53:00
3:53 PM,30.0,16.0,56,30.51,10.0,NW,6.9,-,N/A,,Clear,310,2012-10-25 21:53:00
4:53 PM,28.9,15.1,56,30.53,10.0,North,6.9,-,N/A,,Partly Cloudy,350,2012-10-25 22:53:00
5:53 PM,26.1,15.1,63,30.55,10.0,North,6.9,-,N/A,,Mostly Cloudy,350,2012-10-25 23:53:00
6:53 PM,24.8,15.8,69,30.38,10.0,North,5.8,-,N/A,,Overcast,350,2012-10-26 00:53:00
7:53 PM,23.0,15.1,72,30.59,10.0,Calm,Calm,-,N/A,,Partly Cloudy,0,2012-10-26 01:53:00
8:53 PM,21.9,16.0,78,30.60,10.0,Calm,Calm,-,N/A,,Mostly Cloudy,0,2012-10-26 02:53:00
9:53 PM,23.0,15.1,72,30.60,10.0,WSW,4.6,-,N/A,,Overcast,240,2012-10-26 03:53:00
10:53 PM,23.0,16.0,74,30.59,10.0,WSW,3.5,-,N/A,,Overcast,250,2012-10-26 04:53:00
11:53 PM,23.0,16.0,74,30.60,10.0,Calm,Calm,-,N/A,,Overcast,0,2012-10-26 05:53:00